ELEKTRO-L 2 (41105 NORAD) Tracking and Keplerian Element Data

This shows tracking and keplerian element data for the satellite.

Feedback or suggestion? Click here.




ElementValue
Catalog41105
NameELEKTRO-L 2
Epoch Orbit2122
Epoch Day269.83229182
Epoch Year2021
RAAN91.2543
Inclination2.3263
Eccentricity0.0002955
Argument of Perigee80.2209
Mean Anonmoly119.5214
Mean Motion1.00270803
Decay Rate-1.16E-06
L11 41105U 15074A 21269.83229182 -.00000116 00000-0 00000-0 0 9992
L22 41105 2.3263 91.2543 0002955 80.2209 119.5214 1.00270803 21226

Live tracking and technical data element details for ELEKTRO-L 2 (NORAD 41105). ELEKTRO-L 2 can be tracked NOW for your location showing map with azimuth and elevation plus other details from your city location.

Track the satellite on the map from your city or location and see movement details for azimuth, elevation, latitude, longitude, range, height, and movement on the map or in text.







IsCatalogInMostPopularTable: catalog: 41105, numindb: 559
Update: records affected: 1



GetName: 41105 ELEKTRO-L 2

Hit Count: updated at: Tue, 28 Sep 2021 16:27:30 GMT